Regional Weather Roundup
Issued by NWS

Home | Current Version | Previous Version | Graphics & Text | Print | Product List | Glossary On
Versions: 1 2 3 4 5 6 7 8 9 10 11 12 13 14 15 16 17 18 19 20 21 22 23 24 25 26 27 28 29 30 31 32 33 34 35 36 37 38 39 40 41 42 43 44 45 46 47 48 49 50
000
ASUS45 KCYS 021410
RWRWY

WYOMING REGIONAL WEATHER ROUNDUP
NATIONAL WEATHER SERVICE CHEYENNE WY
800 AM MDT WED SEP 02 2015

NOTE:  "FAIR" INDICATES FEW OR NO CLOUDS BELOW 12,000 FEET
WITH NO SIGNIFICANT WEATHER AND/OR OBSTRUCTIONS TO VISIBILITY.

WYZ001-021500-
YELLOWSTONE NATIONAL PARK

CITY           SKY/WX    TMP DP  RH WIND       PRES   REMARKS
LK YELLOWSTONE   N/A     42  40  92 CALM      30.16R
W YELLOWSTONE  NOT AVBL

$$
WYZ002>013-054>058-071-098>099-021500-
NORTHERN WYOMING

CITY           SKY/WX    TMP DP  RH WIND       PRES   REMARKS
JACKSON        FAIR      50  39  66 CALM      30.11R
CODY           FAIR      63  36  36 S10       29.94S
GREYBULL       FAIR      71  42  35 S7        29.88R
WORLAND        FAIR      71  42  35 SE10      29.91R
SHERIDAN       FAIR      74  45  35 E3        29.85S
BUFFALO        FAIR      78  37  22 W9        29.96R
GILLETTE       FAIR      73  43  33 SW16      29.92R
HULETT         FAIR      73  43  33 S10G16    29.93R
NEWCASTLE        N/A     68  41  37 SE3       29.97S

$$
WYZ014>020-022>026-101>103-021500-
CENTRAL WYOMING

CITY           SKY/WX    TMP DP  RH WIND       PRES   REMARKS
BIG PINEY      FAIR      50  37  61 SE3       30.19R
PINEDALE       FAIR      52  41  66 E5        30.21R
DUBOIS         FAIR      54  34  47 NW6       30.13S
LANDER         FAIR      75  36  24 SW10G21   30.03R
RIVERTON       FAIR      66  41  40 S6        30.04R
CASPER         FAIR      70  40  33 SW20      30.06S
DOUGLAS        FAIR      70  41  34 N6        30.04R

$$
WYZ021-027>030-104>119-021500-
SOUTHERN WYOMING

CITY           SKY/WX    TMP DP  RH WIND       PRES   REMARKS
EVANSTON       FAIR      61  38  42 S10       30.21R
KEMMERER       FAIR      61  34  36 CALM      30.22R
FORT BRIDGER   SUNNY     68  37  32 SW21G30   30.22S
ROCK SPRINGS   FAIR      61  43  51 S3        30.20R
DIXON          FAIR      55  44  68 SE6       30.26S
RAWLINS        FAIR      64  41  42 CALM      30.22R
SARATOGA       FAIR      59  43  55 SE13      30.25S
LARAMIE        FAIR      58  42  55 S10       30.25S
CHEYENNE       FAIR      70  42  36 W16G23    30.14R
TORRINGTON     FAIR      58  47  66 SE6       29.99R
PINE BLUFFS    FAIR      63  41  45 CALM      30.09R

$$



USA.gov is the U.S. government's official web portal to all federal, state and local government web resources and services.